Location: Paderno d�Adda
(45.6667°N, 9.4333°E)
Time: 01:24:14
(UTC+00:00)

SL-08 RB Rocket - Pass Details

Date: 19 September 2020
Orbit: 646 x 684 km, 97.8° (Epoch: 26 October)

Event Time Altitude Azimuth Distance (km) Brightness Sun altitude
Exits shadow 18:26:27 - 148° (SSE) 2,435 6.2 -11.5°
Reaches altitude 10° 18:27:18 10° 146° (SE) 2,102 5.8 -11.6°
Maximum altitude 18:31:44 50° 72° (ENE) 855 3.9 -12.3°
Drops below altitude 10° 18:36:09 10° 357° (N) 2,094 6.5 -13.1°
Sets 18:38:25 0° 352° (N) 3,005 7.4 -13.5°
